Regional Weather Roundup
Issued by NWS

Home | Current Version | Previous Version | Text Only | Print | Product List | Glossary On
Versions: 1 2 3 4 5 6 7 8 9 10 11 12 13 14 15 16 17 18 19 20 21 22 23 24 25 26 27 28 29 30 31 32 33 34 35 36 37 38 39 40 41 42 43 44 45 46 47 48 49 50
003
ASUS42 KKEY 301310
RWRKEY

FLORIDA REGIONAL WEATHER ROUNDUP FOR THE FLORIDA KEYS
NATIONAL WEATHER SERVICE KEY WEST FLORIDA
900 AM EDT SUN APR 30 2017

...SOUTH FLORIDA AND THE KEYS...

CITY           SKY/WX    TMP DP  RH WIND       PRES   REMARKS
FORT MYERS     CLOUDY    77  71  82 SE9       30.10R
SW REGIONAL AP PTSUNNY   75  69  81 E9        30.10R
NAPLES         PTSUNNY   79  71  76 E14       30.09R
MIAMI          PTSUNNY   81  69  67 SE18      30.12R
WEST KENDALL   CLOUDY    81  69  67 SE16G22   30.11R
HOMESTEAD      PTSUNNY   81  73  77 E13G22    30.11R
MARATHON       MOSUNNY   82  73  74 SE12G21   30.08R
BOCA CHICA NAS PTSUNNY   80  73  79 SE20G26   30.06R
KEY WEST INTL  SUNNY     81  73  76 SE18      30.06S

...INTERNATIONAL WEATHER...

CITY           SKY/WX    TMP DP  RH WIND       PRES   REMARKS
NASSAU BAHAMAS MOSUNNY   82  64  54 E16       30.14R
CANCUN MEXICO  MOSUNNY   82  77  83 SE23      29.90R HX  91
COZUMEL MEXICO MOSUNNY   82  75  78 SE13      29.88R

ADJACENT COASTAL WATERS...

STATION/POSITION TIME  SKY/WX   TEMP    WIND        PRES    WAVE
                                AIR SEA DIR/SP/G            HT/PER
                 (UTC)          (F)     (DEG/KT/KT) (MB)    (FT/S)
PULASKI SHOAL LI 1200            80     130/ 18/ 21 1017.1R
SAND KEY         1250            80     140/ 20/ 24 1018.2R
LONG KEY         1200            79 80  120/ 18/ 20 1018.5R
MOLASSES REEF    1200            79 79  130/ 18/ 20 1019.0R
FOWEY ROCKS      1200            78 79  110/ 23/ 25 1019.6R
Buoy 42097       1230                                 N/A     5/ 6

$$




USA.gov is the U.S. government's official web portal to all federal, state and local government web resources and services.